Location: �clusier
(49.9361°N, 2.7869°E)
Time: 07:33:39
(UTC+00:00)

BREEZE-M DEB (TANK) - Pass Details

Date: 16 June 2021
Orbit: 320 x 14772 km, 49.5° (Epoch: 02 August)

Event Time Altitude Azimuth Distance (km) Brightness Sun altitude
Rises 20:36:33 0° 212° (SSW) 2,051 5.6 -5.1°
Reaches altitude 10° 20:38:19 10° 192° (SSW) 1,301 4.4 -5.3°
Maximum altitude 20:40:20 22° 136° (SE) 1,015 3.6 -5.5°
Drops below altitude 10° 20:43:38 10° 83° (E) 2,213 5.6 -5.9°
Sets 20:47:58 0° 71° (ENE) 4,271 7.1 -6.4°
